Regional Weather Roundup
Issued by NWS

Home | Current Version | Previous Version | Text Only | Print | Product List | Glossary Off
Versions: 1 2 3 4 5 6 7 8 9 10 11 12 13 14 15 16 17 18 19 20 21 22 23 24 25 26 27 28 29 30 31 32 33 34 35 36 37 38 39 40 41 42 43 44 45 46 47 48 49 50

000
ASUS44 KMEG 250910
RWRTN
TENNESSEE HOURLY STATE WEATHER ROUNDUP
NATIONAL WEATHER SERVICE MEMPHIS TN
400 AM CDT MON SEP 25 2017

TNZ002-004-019-021-049-052-054-088>092-251000-
WEST TENNESSEE

CITY           SKY/WX    TMP DP  RH WIND       PRES   REMARKS
MEMPHIS INTL   CLEAR     69  67  93 CALM      29.97S
NWS MEMPHIS      N/A     68 N/A N/A MISG        N/A
JACKSON        CLEAR     65  65 100 CALM      29.99S
DYERSBURG      CLEAR     66  66 100 CALM      29.99S
SOMERVILLE     CLEAR     66  66 100 CALM      29.97S
COVINGTON      CLEAR     64  63  94 CALM      29.98S
BOLIVAR        FOG       64  63  94 CALM      29.98S VSB 3/4
PARIS          CLEAR     64  64 100 CALM      29.99S
HUNTINGDON     CLEAR     66  66 100 CALM      29.99S
LEXINGTON      CLEAR     64  64 100 CALM      30.00R FOG
SELMER         CLEAR     66  64  94 CALM      29.99S
SAVANNAH       CLEAR     64  63  94 CALM      29.99S
$$

TNZ008-025-027-028-033-062-065-066-251000-
NORTH MIDDLE TENNESSEE

CITY           SKY/WX    TMP DP  RH WIND       PRES   REMARKS
NASHVILLE      MOCLDY    69  66  90 CALM      30.01S
PORTLAND       CLEAR     66  66 100 CALM      30.01S
CLARKSVILLE    CLEAR     67  66  97 CALM      30.01R FOG
SMYRNA           N/A    N/A N/A N/A MISG        N/A
COOKEVILLE     CLEAR     61  61 100 CALM      30.03S FOG
GALLATIN       CLEAR     66  64  94 CALM      30.04R
CROSSVILLE     CLEAR     60  59  96 CALM      30.08R FOG
$$

TNZ061-075-076-078-094-096-097-251000-
SOUTH MIDDLE TENNESSEE

CITY           SKY/WX    TMP DP  RH WIND       PRES   REMARKS
FAYETTEVILLE   PTCLDY    66  64  94 CALM      30.02R
TULLAHOMA      CLEAR     63  61  94 CALM      30.04S
WINCHESTER     CLEAR     63  63 100 CALM      30.03S
MCMINNVILLE    CLOUDY    63  63 100 CALM      30.04R VSB 1/4
COLUMBIA       CLOUDY    66 N/A N/A CALM      30.00R
SHELBYVILLE    CLEAR     64  64 100 CALM      30.02S FOG
$$

TNZ017-018-042-046-047-251000-
NORTHEAST TENNESSEE

CITY           SKY/WX    TMP DP  RH WIND       PRES   REMARKS
TRI CITIES     MOCLDY    58  58 100 CALM      30.08R
ELIZABETHTON   PTCLDY    59  57  94 CALM      30.08S
$$

TNZ012-013-036-069-073-074-251000-
CENTRAL EAST TENNESSEE

CITY           SKY/WX    TMP DP  RH WIND       PRES   REMARKS
KNOXVILLE      CLOUDY    65  61  87 N3        30.03R
OAK RIDGE      CLOUDY    64  62  93 CALM      30.06R
DOWNTOWN KNOXV   N/A     64  64 100 CALM      30.03R FOG
GATLINBURG     CLEAR     61  57  88 CALM      30.03S
MORRISTOWN     CLEAR     66  57  72 NE3       30.04S
JACKSBORO      CLEAR     61  61 100 CALM      30.08S FOG
$$

TNZ083-085-099-251000-
SOUTHEAST TENNESSEE

CITY           SKY/WX    TMP DP  RH WIND       PRES   REMARKS
CHATTANOOGA    CLEAR     67  65  93 CALM      30.03R
DAYTON         FOG       64  63  94 CALM      30.02S VSB 1
$$

SKY/WX REPORTED AS FAIR MEANS FEW OR NO CLOUDS BELOW
12 THOUSAND FEET.





USA.gov is the U.S. government's official web portal to all federal, state and local government web resources and services.